AirNav   Phillips 66 Aviation Fuel
 
 381 users online  

T56
(formerly 2TS6)
Eagle's Nest Estates Airport
Midlothian, Texas, USA

GOING TO MIDLOTHIAN?


FAA INFORMATION EFFECTIVE 13 SEPTEMBER 2018

Location

FAA Identifier: T56
Lat/Long: 32-30-46.1240N / 096-55-36.3965W
32-30.768733N / 096-55.606608W
32.5128122 / -96.9267768
(estimated)
Elevation: 780 ft. / 238 m (estimated)
Variation: 06E (1985)
From city: 3 miles S of MIDLOTHIAN, TX
Time zone: UTC -5 (UTC -6 during Standard Time)
Zip code: 76065

Airport Operations

Airport use: Open to the public
Activation date: 02/1985
Control tower: no
ARTCC: FORT WORTH CENTER
FSS: FORT WORTH FLIGHT SERVICE STATION
NOTAMs facility: FTW (NOTAM-D service available)
Attendance: UNATNDD
Wind indicator: yes
Segmented circle: no
Lights: ACTVT MIRL RY 17/35 - 122.975. RQR DAY AND NIGHT FOR TKOFS/LNDGS.
Beacon: white-green (lighted land airport)
ACTIVATE ROTATING BCN - CTAF.

Airport Communications

CTAF: 122.975
WX AWOS-3 at JWY (3 nm S): 119.575 (972-937-4747)
WX ASOS at RBD (11 nm N): PHONE 214-330-5317
WX AWOS-3 at LNC (11 nm E): 118.975 (972-227-0471)
WX ASOS at GKY (12 nm NW): 127.375 (817-557-0251)
WX AWOS-3P at GPM (13 nm NW): 118.475 (972-606-1433)
WX AWOS-3 at 49T (17 nm N): 135.425 (214-670-1243)
WX AWOS-3 at FWS (20 nm W): 120.025 (817-426-4172)

Nearby radio navigation aids

VOR radial/distance  VOR name  Freq  Var
TTTr159/22.1MAVERICK VOR/DME113.1006E
CVEr177/22.7COWBOY VOR/DME116.2006E
FUZr145/25.9RANGER VORTAC115.7006E

 
NDB name  Hdg/Dist  Freq  Var  ID
MESQUITE225/26.824803EPQF .--. --.- ..-.
POWELL311/37.034406ECGQ -.-. --. --.-
TRAVIS241/37.326006EAVZ .- ...- --..
CORSICANA311/39.739606ECRS -.-. .-. ...

Airport Services

Runway Information

Runway 17/35

Dimensions: 3216 x 36 ft. / 980 x 11 m
Surface: concrete
Runway edge lights: medium intensity
STROBES MARK THRS.
Runway edge markings: RY NUMBERS ARE 30 FT TALL.
Operational restrictions: RY 35 RISES 12 FT FM PAVEMENT END TO DSPLCD THLD.
RUNWAY 17  RUNWAY 35
Latitude: 32-31.033950N32-30.503517N
Longitude: 096-55.606350W096-55.606867W
Elevation: 779.0 ft.748.0 ft.
Traffic pattern: leftright
Displaced threshold: 332 ft.
37 FT POLES 401 FT FM DSPLCD THLD, 125 FT RIGHTT & LEFT OF CENTERLINE.
272 ft.
43 FT TREE 200 FT FM DSPLCD THLD, 84 FT RIGHT OF CENTERLINE.
Markings: basic, in good conditionbasic, in good condition
Visual slope indicator: tri-color VASI on left (5.00 degrees glide path)tri-color VASI on left (5.00 degrees glide path)
Runway end identifier lights: yesyes
Obstructions: 8 ft. brush, 200 ft. from runway, 15 ft. left of centerline26 ft. trees, 113 ft. from runway, 113 ft. right of centerline, 3:1 slope to clear

Airport Ownership and Management from official FAA records

Ownership: Privately-owned
Owner: EAGLES NEST PROPERTY OWNERS ASSN
PO BOX 8
MIDLOTHIAN, TX 76065
Phone 214-723-2299
ASSOCIATION.
Manager: JAMES BARTH
3121 FALCON WAY
MIDLOTHIAN, TX 76065
Phone 972-775-6403
EAGLES NEST PROPERTY OWNERS ASSOCIATION PRESIDENT.

Airport Operational Statistics

Aircraft based on the field: 64
Single engine airplanes: 60
Multi engine airplanes: 4
    

Instrument Procedures

There are no published instrument procedures at T56.

Some nearby airports with instrument procedures:

KJWY - Mid-Way Regional Airport (3 nm S)
KRBD - Dallas Executive Airport (11 nm N)
KLNC - Lancaster Regional Airport (11 nm E)
KGKY - Arlington Municipal Airport (12 nm NW)
KGPM - Grand Prairie Municipal Airport (13 nm NW)
F41 - Ennis Municipal Airport (17 nm SE)
KFWS - Fort Worth Spinks Airport (20 nm W)
 
Loc | Ops | Rwys | IFR | FBO | Links
Com | Nav | Svcs | Stats | Notes


 
Area around T56 (Eagle's Nest Estates Airport)
 
Road maps at: MapQuest Bing Google
 
Aerial photo
WARNING: Photo may not be current or correct
Aerial photo of T56 (Eagle's Nest Estates Airport)
Do you have a better or more recent aerial photo of Eagle's Nest Estates Airport that you would like to share? If so, please send us your photo.

 
Sectional chart

 
Airport distance calculator
Flying to Eagle's Nest Estates Airport? Find the distance to fly.

From to T56

Sunrise and sunset
Times for 23-Sep-2018
 Local
(UTC-5)
 Zulu
(UTC)
Morning civil twilight06:5311:53
Sunrise07:1812:18
Sunset19:2300:23
Evening civil twilight19:4700:47

Current date and time
Zulu (UTC)  23-Sep-2018 10:03:33
Local (UTC-5)  23-Sep-2018 05:03:33
 
METAR
KJWY 
3nm S 
230955Z AUTO 00000KT 1 1/4SM BR OVC002 21/21 A2989 RMK AO2 T02060206
KRBD 
11nm N 
230953Z AUTO 02004KT 10SM BKN007 OVC010 21/20 A2987 RMK AO2 SLP108 T02110200
KLNC 
11nm E 
230955Z AUTO 08005KT 3/4SM BR OVC002 21/20 A2989 RMK AO2 T02060201
KGKY 
13nm NW 
230953Z AUTO 36008KT 10SM OVC003 20/20 A2988 RMK AO2 SLP112 P0001 T02000200
KGPM 
13nm NW 
230955Z AUTO 35007KT 10SM OVC005 20/20 A2990 RMK AO2 T02000200
KFWS 
19nm W 
230935Z AUTO 35007KT 1 3/4SM BR OVC003 19/19 A2990 RMK AO2 T01920186
TAF
KGKY 
13nm NW 
230520Z 2306/2406 35008KT 5SM -DZ BR OVC005 FM231700 35008KT P6SM OVC009
NOTAMs
Click for the latest NOTAMs
NOTAMs are issued by the DoD/FAA and will open in a separate window not controlled by AirNav.

 

 
 

Would you like to see your business listed on this page?

 If your business provides an interesting product or service to pilots, flight crews, aircraft, or users of the Eagle's Nest Estates Airport, you should consider listing it here.  To start the listing process, click on the button below
 
Add a business
 

Other Pages about Eagle's Nest Estates Airport

www.eaglesnestestates.org
 
Update a link
 
Copyright © AirNav, LLC. All rights reserved. Privacy Policy  Contact